Reflectivity
-20 -20 -20 -20 -20 -20 -20 -20 -20 -20 -20 -20 -20 -20 -20 -20 -20 -20 -0 14 -9 -13 -15 10 12 -6 -20 21 24 29 5 6 36 22 12 28 22 -15 -0 13 23 22 19
-20 -20 -20 -20 -20 -20 -20 -20 -20 -20 -20 -20 -20 -20 -20 -20 -14 -6 -18 -20 -0 -14 5 19 13 14 2 31 26 21 28 28 14 36 10 9 14 -1 14 18 7 2 -20
-20 -20 -20 -20 -20 -20 -20 -20 -20 -20 -20 -20 -10 27 26 10 9 4 11 -19 -8 -1 10 7 9 17 32 25 15 22 20 42 21 13 9 15 -2 6 3 6 15 5 -20
-20 -20 -20 -20 -20 -20 -20 -20 -20 -12 -20 -3 21 28 32 12 24 6 3 -14 10 16 -20 12 -18 14 12 14 15 26 43 13 21 22 20 28 23 28 16 4 -19 -20 -20
-20 -20 -20 -20 -20 -20 -20 -20 -5 -20 -10 -17 -15 18 27 -9 13 16 17 22 10 21 30 30 28 -11 25 30 15 30 26 14 23 29 24 25 12 15 14 -16 -20 -20 -20
-20 -20 -20 -20 -20 -20 -20 -12 -20 -20 -20 -20 -20 26 -2 -11 10 21 30 22 31 31 28 30 29 30 31 44 35 37 18 11 24 18 18 6 1 -20 -20 -20 -20 -20 -20
-20 -20 -20 -20 -20 -20 -20 -20 -20 -20 -19 -9 -8 7 -13 -7 9 22 34 39 33 23 26 21 45 36 36 26 31 22 20 23 22 9 3 2 -11 -20 -20 -20 -20 -20 -20
-20 -20 -20 -20 -20 -20 -20 -20 -20 -2 7 11 26 38 35 18 30 38 41 42 28 15 37 33 35 36 35 12 13 11 3 -4 -13 -10 -20 -20 -20 -20 -20 -20 -20 -20 -20
-14 -1 2 -18 -20 -20 -20 -20 2 8 20 22 29 33 21 29 31 39 18 23 16 26 32 37 35 33 21 -16 0 -11 -16 -14 -9 -20 -20 -20 -20 -20 -20 -20 -20 -20 -20
1 5 -0 -13 -20 -20 -20 -2 -17 22 16 27 36 27 31 32 35 33 31 22 21 34 38 28 18 5 -6 -20 -20 -20 -20 -20 -20 -20 -20 -20 -20 -20 -20 -20 -20 -20 -20
7 3 -2 -15 -14 -20 -20 5 22 31 30 28 38 37 33 37 36 36 34 29 22 25 11 0 2 -9 -16 -20 -20 -20 -20 -20 -20 -20 -20 -20 -20 -20 -20 -20 -20 -20 -20
-11 2 -20 -20 -20 -16 8 9 24 32 25 33 30 33 36 37 34 34 34 22 15 -9 -18 -13 -16 -19 -20 -20 -20 -20 -20 -20 -20 -20 -20 -20 -20 -20 -20 -20 -20 -20 -20
10 2 -20 -20 -20 -8 6 24 25 18 27 27 33 31 23 28 35 24 11 -17 -10 -2 -9 -20 -20 -20 -20 -20 -20 -20 -20 -20 -20 -20 -20 -20 -20 -20 -20 -20 -20 -20 -20
5 -19 -20 -20 -11 22 12 18 32 32 37 32 29 22 31 15 24 8 -1 -12 -19 -20 -20 -20 -20 -20 -20 -20 -20 -20 -20 -20 -20 -20 -20 -20 -20 -20 -20 -20 -20 -20 -20
-20 -20 -20 -20 -4 23 29 28 29 34 35 29 33 33 7 -4 -20 -20 -20 -20 -20 -20 -20 -20 -20 -20 -20 -20 -20 -20 -20 -20 -20 -20 -20 -20 -20 -20 -20 -20 -20 -20 -20
-20 -16 -12 -14 15 25 24 18 36 36 32 34 28 -2 2 -20 -20 -20 -20 -20 -20 -20 -20 -20 -20 -20 -20 -20 -20 -20 -20 -20 -20 -20 -20 -20 -20 -20 -20 -20 -20 -20 -20
-19 -20 -15 13 -7 21 30 14 30 32 33 31 6 -7 -20 -20 -20 -20 -20 -20 -20 -20 -20 -20 -20 -20 -20 -20 -20 -20 -20 -20 -20 -20 -20 -20 -20 -20 -20 -20 -20 -20 -20
-20 10 -4 -13 -6 13 12 23 9 10 27 16 16 -15 -20 -20 -20 -20 -20 -20 -20 -20 -20 -20 -20 -20 -20 -20 -20 -20 -20 -20 -20 -20 -20 -20 -20 -20 -20 -20 -20 -20 -20
-8 -14 -13 -20 8 13 18 11 -5 24 5 -10 -20 -20 -20 -20 -20 -20 -20 -20 -20 -20 -20 -20 -20 -20 -20 -20 -20 -20 -20 -20 -20 -20 -20 -20 -20 -20 -20 -20 -20 -20 -20
-1 14 9 -4 10 11 25 5 5 11 -17 -20 -20 -20 -20 -20 -20 -20 -20 -20 -20 -20 -20 -20 -20 -20 -20 -20 -20 -20 -20 -20 -20 -20 -20 -20 -20 -20 -20 -20 -20 -20 -20
13 8 21 -0 16 19 0 -11 -6 -17 -20 -20 -20 -20 -20 -20 -20 -20 -20 -20 -20 -20 -20 -20 -20 -20 -20 -20 -20 -20 -20 -20 -20 -20 -20 -20 -20 -20 -20 -20 -20 -20 -20
4 -4 -2 6 23 23 17 1 -5 -20 -20 -20 -20 -20 -20 -20 -20 -20 -20 -20 -20 -20 -20 -20 -20 -20 -20 -20 -20 -20 -20 -20 -20 -20 -20 -20 -20 -20 -20 -20 -20 -20 -20
10 6 3 13 16 18 9 -5 -20 -20 -20 -20 -20 -20 -20 -20 -20 -20 -20 -20 -20 -20 -20 -20 -20 -20 -20 -20 -20 -20 -20 -20 -20 -20 -20 -20 -20 -20 -20 -20 -20 -20 -20
25 11 11 8 0 6 11 -1 -20 -20 -20 -20 -20 -20 -20 -20 -20 -20 -20 -20 -20 -20 -20 -20 -20 -20 -20 -20 -20 -20 -20 -20 -20 -20 -20 -20 -20 -20 -20 -20 -20 -20 -20
29 16 19 14 13 -8 -20 -20 -20 -20 -20 -20 -20 -20 -20 -20 -20 -20 -20 -20 -20 -20 -20 -20 -20 -20 -20 -20 -20 -20 -20 -20 -20 -20 -20 -20 -20 -20 -20 -20 -20 -20 -20
25 22 10 -4 -20 -20 -20 -20 -20 -20 -20 -20 -20 -20 -20 -20 -20 -20 -20 -20 -20 -20 -20 -20 -20 -20 -20 -20 -20 -20 -20 -20 -20 -20 -20 -20 -20 -20 -20 -20 -20 -20 -20
Wind_Speed
8 8 9 9 9 10 10 9 10 12 13 15 15 14 10 13 15 14 15 14 15 14 14 14 9 14 10 10 10 8 10 12 14 5 4 6 11 13 12 11 10 11 13
8 8 10 11 8 10 10 12 14 14 12 14 14 11 14 15 15 15 15 14 16 17 15 12 11 11 15 13 9 13 11 10 19 16 6 5 10 11 12 12 10 10 11
13 11 11 11 11 9 12 15 15 16 14 14 14 12 17 16 15 16 16 16 17 15 10 12 14 15 14 13 13 13 13 12 12 13 10 6 6 8 10 10 8 6 8
13 13 12 11 9 11 13 15 15 16 16 16 14 14 14 15 16 15 15 14 14 10 14 15 16 16 19 18 15 17 15 16 14 11 11 9 6 4 8 8 7 4 4
12 14 15 12 12 12 14 14 15 17 14 16 16 14 13 12 11 9 13 4 10 13 13 13 14 20 25 23 15 17 18 16 13 12 10 8 7 6 7 6 7 6 5
14 14 16 14 13 14 11 14 16 16 18 16 16 14 14 10 16 11 7 12 14 16 18 17 20 26 27 30 31 24 20 20 15 11 9 9 5 9 7 7 6 5 5
16 17 13 16 16 15 14 16 17 18 18 19 17 17 15 11 14 5 18 12 19 18 20 20 19 17 23 21 30 30 27 26 21 11 12 8 9 4 7 8 6 6 4
17 15 16 14 16 16 16 16 17 16 19 17 18 17 17 12 20 18 28 19 18 19 21 19 23 20 21 23 24 21 19 18 16 13 14 13 12 11 12 10 8 6 5
16 16 14 14 16 16 16 16 14 15 17 17 15 6 16 17 33 29 26 21 23 21 19 18 22 22 32 36 26 24 22 19 26 30 27 25 23 20 13 8 8 8 4
15 15 14 14 14 14 15 15 13 13 14 10 13 13 23 18 31 37 28 18 24 19 18 21 32 27 33 32 23 21 21 16 17 15 14 18 18 19 23 10 5 8 4
14 14 13 13 13 12 13 12 11 13 9 10 17 13 15 19 25 36 35 18 17 17 16 15 16 34 35 33 29 18 20 18 22 14 12 11 12 12 10 10 8 7 5
13 13 12 11 10 9 11 10 11 3 4 12 15 13 12 17 27 31 34 32 29 20 17 16 20 34 35 34 25 33 31 21 12 12 11 10 10 9 8 8 8 7 5
12 11 10 10 9 9 8 9 7 6 6 10 14 13 14 14 16 34 34 37 35 22 17 27 35 34 34 29 32 30 23 12 11 11 10 9 7 7 7 8 8 7 8
10 9 7 7 8 7 6 5 5 6 7 10 14 12 11 12 14 15 18 21 34 25 27 20 25 26 26 24 18 16 11 9 9 8 6 4 4 4 4 4 6 4 7
6 6 5 5 5 7 3 7 7 7 6 11 11 10 13 14 13 20 17 15 15 21 20 15 14 14 14 13 12 10 8 7 9 8 8 7 5 5 5 4 4 3 4
1 2 3 3 4 2 9 11 23 21 20 21 19 17 15 25 29 31 31 30 29 28 16 14 13 12 12 10 10 9 8 11 8 8 7 5 6 6 7 5 4 4 5
3 4 3 3 3 6 8 11 13 18 26 26 27 29 31 30 30 28 29 29 28 23 15 13 13 11 9 9 9 9 10 8 7 7 6 5 5 6 7 5 4 5 8
3 5 2 6 7 8 9 11 12 13 14 14 23 26 28 28 27 27 27 25 15 15 12 12 11 9 9 9 8 9 9 7 7 7 7 7 6 6 7 7 6 6 6
2 5 6 7 8 10 10 12 13 13 14 14 13 18 21 25 25 24 23 13 12 12 11 11 9 9 8 8 8 8 9 8 7 8 8 8 5 5 5 4 8 12 9
6 12 9 8 9 9 10 12 12 12 12 11 10 9 9 13 11 11 11 12 11 10 9 10 9 9 8 9 8 7 8 8 7 7 7 6 5 4 5 5 5 4 4
5 7 14 9 9 9 10 11 11 11 11 10 7 8 17 11 11 10 10 10 9 10 10 9 8 8 7 7 7 7 7 7 6 7 7 5 5 5 5 5 5 5 4
6 7 8 9 9 9 10 10 11 11 10 10 9 13 20 10 10 11 10 10 9 9 8 9 8 7 6 7 7 8 7 7 7 6 6 5 5 5 5 5 5 4 5
6 9 9 9 9 15 11 10 11 10 11 10 9 10 9 10 10 10 10 10 9 9 8 8 9 8 7 6 6 5 8 6 5 6 6 5 5 5 5 5 5 5 4
8 9 10 10 9 10 11 11 10 12 11 10 9 9 9 10 10 11 10 10 10 8 7 8 8 9 8 7 6 5 5 5 5 6 8 7 6 7 5 5 5 6 5
8 9 10 9 9 10 12 10 10 10 10 10 9 9 10 10 10 10 9 9 9 9 9 7 8 10 10 11 9 9 11 13 8 8 6 8 8 8 6 4 5 5 6
8 10 9 7 8 8 9 10 9 9 10 10 9 9 9 10 10 10 9 10 9 8 9 7 9 12 12 9 10 12 13 13 11 14 7 7 7 6 5 6 8 5 6
Wind_Direction
314 312 310 300 294 300 297 295 300 301 299 298 294 291 299 296 285 276 267 266 269 262 255 239 211 148 147 156 150 138 130 130 118 106 74 84 100 106 100 95 90 84 79
308 306 300 297 297 299 297 301 295 293 294 293 290 292 301 285 280 278 274 266 254 246 238 225 148 139 139 148 137 126 128 134 125 125 108 102 97 93 97 96 88 77 79
311 305 299 298 296 295 297 293 294 295 302 298 297 299 290 282 275 273 267 261 246 231 209 153 146 145 137 121 118 118 118 114 116 121 121 113 103 111 105 97 93 81 81
304 303 297 294 285 293 296 302 305 309 303 302 294 274 274 277 274 258 288 256 231 195 153 145 143 139 128 124 120 119 124 118 118 116 111 112 115 114 108 109 95 66 77
302 302 297 293 294 296 301 305 312 304 302 295 294 293 278 283 280 288 278 195 143 142 132 130 121 118 126 124 123 125 130 119 117 118 116 120 126 132 115 104 103 94 59
306 301 299 299 299 301 320 325 313 318 308 300 299 291 293 285 286 307 91 123 112 110 105 103 107 105 107 110 114 124 124 123 120 120 127 127 119 116 119 122 125 117 84
304 296 316 325 323 318 318 317 313 310 308 303 302 297 285 267 266 190 123 121 100 102 104 104 96 100 103 107 110 109 106 106 108 118 112 106 108 106 96 93 84 89 90
309 315 310 312 309 311 314 312 310 311 308 306 301 290 283 232 201 139 110 96 96 95 96 104 106 112 117 113 103 91 84 78 80 82 83 82 82 86 100 112 110 95 60
311 303 306 310 307 309 308 305 313 313 310 310 305 66 61 83 109 108 100 96 89 86 86 100 104 103 108 105 98 94 88 87 85 86 88 92 92 101 114 107 93 88 64
313 309 311 301 298 300 301 303 314 309 311 323 53 59 81 83 95 98 97 99 93 94 96 91 98 103 100 96 96 102 96 87 86 81 71 64 61 63 61 66 108 111 99
309 310 302 299 298 297 296 310 315 312 316 61 67 61 75 85 84 92 94 91 99 101 96 96 97 100 97 97 96 96 103 107 94 89 83 71 62 59 60 62 63 93 90
305 300 297 297 299 303 304 309 317 309 77 87 81 74 73 76 89 98 101 99 98 97 99 97 99 101 101 102 101 104 103 99 92 86 84 79 76 71 64 64 61 65 81
299 295 297 300 299 296 308 323 331 53 64 84 84 77 78 80 85 91 93 97 96 96 100 107 103 102 101 96 99 97 91 88 93 93 95 98 99 102 89 73 63 52 55
290 290 298 293 303 310 320 309 67 72 83 91 90 88 89 90 93 95 98 98 97 97 96 96 100 98 93 92 86 83 84 86 97 102 105 101 99 87 94 93 88 60 73
280 283 309 299 319 320 3 82 77 60 79 107 96 101 110 101 102 108 107 106 106 102 97 90 89 87 86 85 81 82 83 78 86 83 86 83 74 72 73 79 83 77 82
303 309 312 338 327 9 80 77 76 84 90 96 102 103 99 105 108 107 106 104 103 102 93 94 90 90 90 94 96 91 84 90 84 89 83 81 82 80 78 71 67 70 68
8 38 350 338 60 76 84 89 85 73 82 93 98 98 102 112 109 107 103 99 96 95 88 91 93 91 93 92 90 91 90 85 84 86 88 84 80 85 86 73 66 64 63
30 11 355 69 74 81 89 95 95 93 93 88 90 104 104 105 102 99 98 92 84 77 87 92 93 95 96 93 91 92 90 84 83 82 81 79 75 80 83 80 77 83 81
19 73 78 78 84 92 95 99 98 98 99 103 105 95 98 96 90 88 88 87 94 89 90 91 95 97 93 91 88 89 93 94 90 92 89 92 84 90 86 84 98 97 93
92 99 98 97 98 99 102 104 103 104 105 106 104 104 100 89 84 82 83 91 90 92 94 93 92 90 90 95 93 90 92 91 90 93 92 90 89 87 86 87 86 88 78
97 105 110 98 100 107 108 107 107 108 107 105 97 95 100 95 96 93 92 89 94 96 97 95 95 97 92 92 95 94 94 93 90 93 93 88 85 81 79 82 83 85 89
86 95 101 102 107 108 107 107 107 108 105 101 99 96 97 91 94 93 91 92 94 93 94 100 96 92 93 99 104 101 98 100 97 96 92 88 85 84 81 73 67 64 67
94 98 101 103 106 109 106 103 105 105 106 101 99 98 96 94 95 96 98 98 96 94 94 96 95 92 88 88 87 94 108 106 108 107 103 94 85 79 78 80 70 62 68
96 98 100 102 104 106 106 107 108 106 107 102 100 100 99 99 100 100 100 100 97 92 88 91 94 97 93 89 89 85 91 96 96 103 101 98 91 89 83 81 75 66 61
95 101 99 103 107 108 111 109 110 112 108 105 107 104 104 104 102 102 102 101 100 99 93 91 93 96 95 97 97 97 102 100 100 96 91 91 92 88 84 77 73 64 66
90 97 94 97 100 105 109 113 114 111 110 112 111 108 110 108 108 108 106 104 103 100 99 93 98 101 97 94 100 102 101 99 98 96 91 92 90 83 78 79 76 68 69